User: anonymous   Login
Location: Bethera
(33.2010°N, 79.7880°W)
Time: 02:59:19
(UTC-05:00)
Language:

Cosmos 1833 Rocket - Orbit

View from above orbital plane
View from above orbital plane
View from above satellite
View from above satellite

Ground track
Ground track

The orbit data is extracted from the following two-line orbital elements,

1 17590U 87027B   17020.21222059 -.00000235  00000-0 -93320-4 0  9992
2 17590  71.0037 101.5730 0005203 196.6450 163.4503 14.16736043543166
Epoch (UTC): 20 January 2017 05:05:35
Eccentricity: 0.0005203
inclination: 71.0037°
perigee height: 832 km
apogee height: 840 km
right ascension of ascending node: 101.5730°
argument of perigee: 196.6450°
revolutions per day: 14.16736043
mean anomaly at epoch: 163.4503°
orbit number at epoch: 54316

The dashed part of the orbit path shows where the satellite is in the earth's shadow,  

DLR